Flag for U.S.A. Weather past 2 weeks in Livonia, Michigan, U.S.A.

64 °F

Mostly cloudy.

Feels Like: 64 °F
Forecast: 49 / 65 °F
Wind: 7 mph from Southwest

Location: Detroit Metropolitan Wayne County Airport

Current Time: Oct 9, 2015 at 5:54:29 AM

Latest Report: Oct 9, 2015 at 4:53 AM

Visibility: 7 mi

Pressure: 29.84 "Hg

Humidity: 90%

Dew point: 61 °F

Location of LivoniaLocation

Historic Weather in Livonia — Graph


Livonia temperature yesterday

Maximum temperature yesterday: 73 °F (at 2:53 PM)
Minimum temperature yesterday: 48 °F (at 5:53 AM)
Average temperature yesterday: 61 °F

Past Weeks' High & Low Weather Summary

High80 °F (Sep 25, 2:53 PM)97% (Oct 4, 2:53 AM)30.37 "Hg (Oct 4, 2:53 AM)
Low46 °F (Oct 1, 7:53 AM)36% (Oct 2, 12:53 PM)29.84 "Hg (Oct 9, 4:53 AM)
Average62 °F72%30.17 "Hg
* Reported Sep 24 4:53 AM — Oct 9 4:53 AM, Livonia, Weather by CustomWeather, © 2015

Note: Actual official high and low records may vary slightly from our data, if they occured in-between our weather recording intervals... More about our weather records


Livonia weather history for previous 24 hours

Time TempWeatherWind HumidityBarometerVisibility
4:53 AM
Fri, Oct 9
64 °FMostly cloudy.7 mph90%29.84 "Hg7 mi
3:53 AM64 °FLight rain. Overcast.9 mph87%29.85 "Hg7 mi
2:53 AM64 °FLight rain. Mostly cloudy.6 mph87%29.85 "Hg7 mi
1:53 AM65 °FLight rain. Mostly cloudy.5 mph85%29.85 "Hg5 mi
12:53 AM67 °FMostly cloudy.7 mph76%29.86 "Hg10 mi
11:53 PM
Thu, Oct 8
68 °FOvercast.12 mph73%29.86 "Hg10 mi
10:53 PM65 °FMostly cloudy.8 mph85%29.86 "Hg10 mi
9:53 PM64 °FLight rain. Overcast.5 mph87%29.87 "Hg7 mi
8:53 PM64 °FPartly cloudy.3 mph84%29.88 "Hg9 mi
7:53 PM65 °FLight rain. Cloudy.5 mph76%29.90 "Hg9 mi
6:53 PM68 °FCloudy.6 mph63%29.91 "Hg10 mi
5:53 PM69 °FOvercast.8 mph61%29.92 "Hg10 mi
4:53 PM70 °FPartly sunny.10 mph59%29.94 "Hg10 mi
3:53 PM72 °FPartly sunny.9 mph57%29.96 "Hg10 mi
2:53 PM73 °FScattered clouds.10 mph57%29.99 "Hg10 mi
1:53 PM71 °FScattered clouds.9 mph61%30.03 "Hg10 mi
12:53 PM69 °FBroken clouds.6 mph66%30.06 "Hg10 mi
11:53 AM67 °FScattered clouds.7 mph68%30.09 "Hg10 mi
10:53 AM62 °FScattered clouds.No wind73%30.11 "Hg10 mi
9:53 AM57 °FBroken clouds.3 mph78%30.12 "Hg10 mi
8:53 AM52 °FScattered clouds.No wind83%30.13 "Hg9 mi
7:53 AM49 °FPassing clouds.No wind86%30.13 "Hg8 mi
6:53 AM48 °FPassing clouds.3 mph86%30.13 "Hg10 mi
5:53 AM48 °FPassing clouds.5 mph86%30.14 "Hg10 mi
Weather by CustomWeather, © 2015

See weather overviewHow to use our weather pages